If you wish to contribute or participate in the discussions about articles you are invited to join SKYbrary as a registered user

 Actions

Arad International Airport

From SKYbrary Wiki

LRAR
Airport
ICAO: LRAR – IATA: ARW
Summary
Name Arad International Airport
Region
Territory Romania RO.gif
Location , Arad
Serving Arad
Elevation 107.29 m
352 ft
352 ft107.29 m
Type medium airport
Coordinates 46° 10' 35.58" N, 21° 15' 43.28" E
Runways
Designator Length Width Surface ROPS
9/27 2000 m6,561.68 ft
45 m147.638 ft
CON /


METAR
Observation LRAR 200600Z VRB01KT CAVOK 10/03 Q1028
Station Arad
Date/Time 20 April 2019 06:00:00
Wind direction °
Wind speed 01 kts
Lowest cloud amount clouds and visibility OK
Temperature 10°C
Dew point 3°C
Humidity 61%
QNH 1028 hPa
Weather condition n/a